GW0552 Weather Reports


time (UTC)temp
F
wind
direction
speed
knots
gust
knots
rain 1hr
in
rain 24hr
in
rain mn
in
humidity
%
barometer
mb
20260903180553 94 60 0.0 0.0 0.00 0.00 0.00 59 1012.9
20260903180047 93 48 0.0 0.0 0.00 0.00 0.00 62 1012.9
20260903175546 93 49 0.0 0.0 0.00 0.00 0.00 62 1012.9
20260903175046 95 284 1.7 2.6 0.00 0.00 0.00 60 1013.1
20260903174540 98 311 1.7 2.6 0.00 0.00 0.00 58 1013.0
20260903174035 98 313 0.0 0.0 0.00 0.00 0.00 54 1013.0
20260903173530 98 61 0.0 0.0 0.00 0.00 0.00 52 1013.2
20260903173027 98 73 0.0 0.0 0.00 0.00 0.00 51 1013.1
20260903172521 96 71 1.7 1.7 0.00 0.00 0.00 54 1013.3
20260903172017 96 42 0.0 0.0 0.00 0.00 0.00 54 1013.2
20260903171511 96 53 0.9 0.9 0.00 0.00 0.00 55 1013.5
20260903171006 96 57 0.0 0.0 0.00 0.00 0.00 57 1013.5
20260903170500 96 72 1.7 1.7 0.00 0.00 0.00 56 1013.5
20260903170000 96 77 1.7 2.6 0.00 0.00 0.00 60 1013.7
20260903165453 95 63 0.9 0.9 0.00 0.00 0.00 58 1013.7
20260903164948 96 81 4.3 5.2 0.00 0.00 0.00 55 1013.5
20260903164438 95 22 0.0 0.0 0.00 0.00 0.00 58 1013.9
20260903163937 94 37 0.9 0.9 0.00 0.00 0.00 58 1013.6
20260903163433 95 357 0.9 1.7 0.00 0.00 0.00 55 1013.9
20260903162930 94 67 0.0 0.0 0.00 0.00 0.00 64 1013.8
20260903162426 94 358 1.7 1.7 0.00 0.00 0.00 60 1014.0
20260903161921 94 63 0.9 0.9 0.00 0.00 0.00 62 1014.0
20260903161416 93 26 0.9 1.7 0.00 0.00 0.00 63 1014.0
20260903160912 93 46 0.9 2.6 0.00 0.00 0.00 64 1013.9
20260903160411 93 353 3.5 4.3 0.00 0.00 0.00 63 1014.0
20260903155910 93 65 0.0 0.0 0.00 0.00 0.00 64 1014.2
20260903155405 92 22 1.7 1.7 0.00 0.00 0.00 66 1013.9
20260903154901 92 34 0.0 0.0 0.00 0.00 0.00 66 1014.0
20260903154357 92 66 0.0 0.0 0.00 0.00 0.00 68 1014.0
20260903153857 92 52 0.0 0.0 0.00 0.00 0.00 68 1014.1
20260903153352 92 66 0.9 0.9 0.00 0.00 0.00 66 1014.1
20260903152849 91 38 0.0 0.9 0.00 0.00 0.00 68 1014.0
20260903152344 91 38 0.0 0.9 0.00 0.00 0.00 68 1014.0
20260903151839 91 42 0.0 0.9 0.00 0.00 0.00 72 1014.3
20260903151335 91 59 0.0 0.0 0.00 0.00 0.00 74 1014.3
20260903150835 89 58 0.0 0.0 0.00 0.00 0.00 76 1014.2
20260903150329 89 328 2.6 2.6 0.00 0.00 0.00 75 1014.4
20260903145824 88 55 1.7 1.7 0.00 0.00 0.00 75 1014.2
20260903145319 87 40 0.9 0.9 0.00 0.00 0.00 79 1014.2
20260903144819 87 92 0.0 0.9 0.00 0.00 0.00 81 1014.1
20260903144314 87 30 0.9 0.9 0.00 0.00 0.00 77 1014.1
20260903143809 88 45 0.9 0.9 0.00 0.00 0.00 77 1014.4
20260903143306 88 49 0.0 0.0 0.00 0.00 0.00 84 1014.3
20260903142802 87 67 0.0 0.0 0.00 0.00 0.00 84 1014.5
20260903142257 87 85 1.7 1.7 0.00 0.00 0.00 80 1014.3
20260903141753 86 59 0.0 0.0 0.00 0.00 0.00 88 1014.2
20260903141249 84 62 1.7 1.7 0.00 0.00 0.00 85 1014.4
20260903140749 84 31 1.7 1.7 0.00 0.00 0.00 85 1014.2
20260903140244 83 67 1.7 2.6 0.00 0.00 0.00 87 1014.2
20260903135740 83 66 1.7 1.7 0.00 0.00 0.00 87 1014.3
20260903135235 82 50 0.9 0.9 0.00 0.00 0.00 89 1014.3
20260903134733 82 52 0.9 1.7 0.00 0.00 0.00 90 1014.2
20260903134230 81 32 2.6 2.6 0.00 0.00 0.00 92 1014.3
20260903133727 80 47 0.9 0.9 0.00 0.00 0.00 94 1014.2
20260903133224 80 63 1.7 1.7 0.00 0.00 0.00 95 1014.2
20260903132724 79 42 0.9 0.9 0.00 0.00 0.00 98 1014.3
20260903132224 78 60 0.0 0.0 0.00 0.00 0.00 99 1014.4
20260903131718 77 61 0.0 0.0 0.00 0.00 0.00 99 1014.3
20260903131213 77 62 0.0 0.0 0.00 0.00 0.00 99 1014.5
20260903130708 76 53 0.0 0.0 0.00 0.00 0.00 99 1014.5
20260903130202 75 54 0.0 0.0 0.00 0.00 0.00 99 1014.5
20260903125701 74 53 0.0 0.0 0.00 0.00 0.00 99 1014.5
20260903125156 74 53 0.0 0.0 0.00 0.00 0.00 99 1014.6
20260903124655 73 58 0.0 0.0 0.00 0.00 0.00 99 1014.9
20260903124156 73 59 0.0 0.0 0.00 0.00 0.00 99 1014.9
20260903123655 73 57 0.0 0.0 0.00 0.00 0.00 99 1014.6
20260903123154 72 58 0.0 0.0 0.00 0.00 0.00 99 1014.8
20260903122654 72 59 0.0 0.0 0.00 0.00 0.00 99 1014.6
20260903122148 71 62 0.0 0.0 0.00 0.00 0.00 99 1014.8
20260903121647 71 62 0.0 0.0 0.00 0.00 0.00 99 1014.6
20260903121144 71 62 0.0 0.0 0.00 0.00 0.00 99 1014.7
20260903120642 71 62 0.0 0.0 0.00 0.00 0.00 99 1014.8
20260903120137 70 62 0.0 0.0 0.00 0.00 0.00 99 1014.7
20260903115635 70 62 0.0 0.0 0.00 0.00 0.00 99 1014.8
20260903115131 70 62 0.0 0.0 0.00 0.00 0.00 99 1014.7
20260903114626 70 62 0.0 0.0 0.00 0.00 0.00 99 1014.7
20260903114121 70 62 0.0 0.0 0.00 0.00 0.00 99 1014.5
20260903113616 70 61 0.0 0.0 0.00 0.00 0.00 99 1014.6
20260903113113 70 62 0.0 0.0 0.00 0.00 0.00 99 1014.6
20260903112609 70 61 0.0 0.0 0.00 0.00 0.00 99 1014.4
20260903112108 70 61 0.0 0.0 0.00 0.00 0.00 99 1014.2
20260903111607 70 62 0.0 0.0 0.00 0.00 0.00 99 1014.4
20260903111103 70 62 0.0 0.0 0.00 0.00 0.00 99 1014.2
20260903110559 70 62 0.0 0.0 0.00 0.00 0.00 99 1014.2
20260903110054 70 62 0.0 0.0 0.00 0.00 0.00 99 1014.1
20260903105549 70 62 0.0 0.0 0.00 0.00 0.00 99 1014.0
20260903105044 70 62 0.0 0.0 0.00 0.00 0.00 99 1014.1
20260903104543 70 62 0.0 0.0 0.00 0.00 0.00 99 1013.9
20260903104039 70 62 0.0 0.0 0.00 0.00 0.00 99 1013.9
20260903103535 70 65 0.0 0.0 0.00 0.00 0.00 99 1013.8
20260903103031 70 63 0.0 0.0 0.00 0.00 0.00 99 1013.9
20260903102526 70 61 0.0 0.0 0.00 0.00 0.00 99 1013.6
20260903102025 70 61 0.0 0.0 0.00 0.00 0.00 99 1013.6
20260903101520 70 61 0.0 0.0 0.00 0.00 0.00 99 1013.6
20260903101016 70 61 0.0 0.0 0.00 0.00 0.00 99 1013.8
20260903100511 71 61 0.0 0.0 0.00 0.00 0.00 99 1013.9
20260903100009 70 60 0.0 0.0 0.00 0.00 0.00 99 1013.8
20260903095502 70 59 0.0 0.0 0.00 0.00 0.00 99 1013.6
20260903094957 70 59 0.0 0.0 0.00 0.00 0.00 99 1013.7
20260903094456 70 59 0.0 0.0 0.00 0.00 0.00 99 1013.6
20260903093953 71 61 0.0 0.0 0.00 0.00 0.00 99 1013.7
20260903093448 71 61 0.0 0.0 0.00 0.00 0.00 99 1013.6
20260903092944 71 61 0.0 0.0 0.00 0.00 0.00 99 1013.5
20260903092443 71 64 0.0 0.0 0.00 0.00 0.00 99 1013.7
20260903091942 71 62 0.0 0.0 0.00 0.00 0.00 99 1013.8
20260903091440 71 61 0.0 0.0 0.00 0.00 0.00 99 1013.8
20260903090936 71 61 0.0 0.0 0.00 0.00 0.00 99 1013.7
20260903090432 71 61 0.0 0.0 0.00 0.00 0.00 99 1013.8
20260903085930 71 61 0.0 0.0 0.00 0.00 0.00 99 1013.8
20260903085428 71 62 0.0 0.0 0.00 0.00 0.00 99 1013.8
20260903084928 71 61 0.0 0.0 0.00 0.00 0.00 99 1013.6
20260903084427 71 62 0.0 0.0 0.00 0.00 0.00 99 1013.6
20260903083922 71 57 0.0 0.0 0.00 0.00 0.00 99 1013.7
20260903083419 71 57 0.0 0.0 0.00 0.00 0.00 99 1013.4
20260903082917 71 53 0.0 0.0 0.00 0.00 0.00 99 1013.6
20260903082412 71 62 0.0 0.0 0.00 0.00 0.00 99 1013.6
20260903081908 72 72 0.9 1.7 0.00 0.00 0.00 99 1013.6
20260903081403 71 70 0.9 0.9 0.00 0.00 0.00 99 1013.6
20260903080859 71 65 0.9 0.9 0.00 0.00 0.00 99 1013.5
20260903080355 72 72 0.9 1.7 0.00 0.00 0.00 99 1013.5
20260903075849 71 70 0.0 0.0 0.00 0.00 0.00 99 1013.9
20260903075345 71 65 0.0 0.0 0.00 0.00 0.00 99 1013.5
20260903074844 72 63 0.0 0.0 0.00 0.00 0.00 99 1013.6
20260903074339 71 63 0.0 0.0 0.00 0.00 0.00 99 1013.6
20260903073835 71 63 0.0 0.0 0.00 0.00 0.00 99 1013.5
20260903073330 72 63 0.0 0.0 0.00 0.00 0.00 99 1013.7
20260903072825 72 63 0.0 0.0 0.00 0.00 0.00 99 1013.4
20260903072321 72 63 0.0 0.0 0.00 0.00 0.00 99 1013.5
20260903071818 72 63 0.0 0.0 0.00 0.00 0.00 99 1013.5
20260903071314 72 63 0.0 0.0 0.00 0.00 0.00 99 1013.3
20260903070808 72 63 0.0 0.0 0.00 0.00 0.00 99 1013.6
20260903070304 72 66 0.0 0.0 0.00 0.00 0.00 99 1013.4
20260903065759 72 65 0.0 0.0 0.00 0.00 0.00 99 1013.5
20260903065258 72 63 0.0 0.0 0.00 0.00 0.00 99 1013.6
20260903064757 72 61 0.0 0.0 0.00 0.00 0.00 99 1013.6
20260903064253 72 59 0.0 0.0 0.00 0.00 0.00 99 1013.7
20260903063749 72 59 0.0 0.0 0.00 0.00 0.00 99 1013.6
20260903063243 72 59 0.0 0.0 0.00 0.00 0.00 99 1013.4
20260903062739 72 59 0.0 0.0 0.00 0.00 0.00 99 1013.6
20260903062232 73 59 0.0 0.0 0.00 0.00 0.00 99 1013.5
20260903061729 73 60 0.0 0.0 0.00 0.00 0.00 99 1013.5
20260903061228 73 63 0.0 0.0 0.00 0.00 0.00 99 1013.6
20260903060724 73 63 0.0 0.0 0.00 0.00 0.00 99 1013.5
20260903060223 73 67 0.0 0.0 0.00 0.00 0.00 99 1013.3
20260903055720 73 59 0.0 0.0 0.00 0.00 0.00 99 1013.5
20260903055219 73 58 0.0 0.0 0.00 0.00 0.00 99 1013.4
20260903054714 73 57 0.0 0.0 0.00 0.00 0.00 99 1013.2
20260903054210 73 56 0.0 0.0 0.00 0.00 0.00 99 1013.5
20260903053707 73 56 0.0 0.0 0.00 0.00 0.00 99 1013.5
20260903053201 73 56 0.0 0.0 0.00 0.00 0.00 99 1013.4
20260903052657 73 55 0.0 0.0 0.00 0.00 0.00 99 1013.5
20260903052152 73 55 0.0 0.0 0.00 0.00 0.00 99 1013.5
20260903051647 73 68 0.0 0.0 0.00 0.00 0.00 99 1013.6
20260903051143 73 66 0.0 0.0 0.00 0.00 0.00 99 1013.5
20260903050638 74 63 0.0 0.0 0.00 0.00 0.00 99 1013.3
20260903050132 73 60 0.0 0.0 0.00 0.00 0.00 99 1013.4
20260903045631 74 65 0.0 0.0 0.00 0.00 0.00 99 1013.1
20260903045128 74 65 0.0 0.9 0.00 0.00 0.00 99 1013.2
20260903044624 74 64 0.0 0.0 0.00 0.00 0.00 99 1013.2
20260903044119 74 62 0.0 0.0 0.00 0.00 0.00 99 1013.3
20260903043616 74 61 0.0 0.0 0.00 0.00 0.00 99 1013.3
20260903043115 74 66 0.0 0.0 0.00 0.00 0.00 99 1013.1
20260903042609 74 70 0.0 0.0 0.00 0.00 0.00 99 1013.3
20260903042105 74 67 0.0 0.0 0.00 0.00 0.00 99 1013.2
20260903041601 74 67 0.0 0.0 0.00 0.00 0.00 99 1013.2
20260903041102 74 67 0.0 0.0 0.00 0.00 0.00 99 1013.4
20260903040600 74 67 0.0 0.0 0.00 0.00 0.00 99 1013.4
20260903040057 74 67 0.0 0.0 0.00 0.00 0.00 99 1013.3
20260903035553 74 67 0.0 0.0 0.00 0.00 0.00 99 1013.5
20260903035048 75 67 0.0 0.0 0.00 0.00 0.00 99 1013.3
20260903034543 75 67 0.0 0.0 0.00 0.00 0.00 99 1013.4
20260903034038 75 67 0.0 0.0 0.00 0.00 0.00 99 1013.4
20260903033533 75 67 0.0 0.0 0.00 0.00 0.00 99 1013.3
20260903033028 75 67 0.0 0.0 0.00 0.00 0.00 99 1013.5
20260903032523 75 67 0.0 0.0 0.00 0.00 0.00 99 1013.4
20260903032018 75 66 0.0 0.0 0.00 0.00 0.00 99 1013.6
20260903031513 75 66 0.0 0.0 0.00 0.00 0.00 99 1013.4
20260903031008 75 67 0.0 0.9 0.00 0.00 0.00 99 1013.6
20260903030504 75 81 0.9 0.9 0.00 0.00 0.00 99 1013.4
20260903025959 75 70 0.0 0.0 0.00 0.00 0.00 99 1013.4
20260903025455 75 69 0.0 0.0 0.00 0.00 0.00 99 1013.4
20260903024950 76 68 0.0 0.0 0.00 0.00 0.00 98 1013.5
20260903024449 76 68 0.0 0.0 0.00 0.00 0.00 98 1013.7
20260903023944 76 68 0.0 0.0 0.00 0.00 0.00 98 1013.5
20260903023440 76 68 0.0 0.0 0.00 0.00 0.00 98 1013.7
20260903022935 76 68 0.0 0.0 0.00 0.00 0.00 98 1013.6
20260903022434 76 68 0.0 0.0 0.00 0.00 0.00 98 1013.4
20260903021932 76 68 0.0 0.0 0.00 0.00 0.00 98 1013.1
20260903021428 76 68 0.0 0.0 0.00 0.00 0.00 98 1013.6
20260903020923 76 68 0.0 0.0 0.00 0.00 0.00 98 1013.3
20260903020418 77 68 0.0 0.0 0.00 0.00 0.00 98 1013.5
20260903015913 77 67 0.0 0.0 0.00 0.00 0.00 97 1013.3
20260903015409 77 65 0.0 0.0 0.00 0.00 0.00 97 1013.5
20260903014904 77 72 0.0 0.0 0.00 0.00 0.00 97 1013.3
20260903014403 77 71 0.0 0.0 0.00 0.00 0.00 97 1013.5
20260903013858 77 71 0.0 0.0 0.00 0.00 0.00 97 1013.5
20260903013358 77 66 0.0 0.0 0.00 0.00 0.00 96 1013.4
20260903012857 77 67 0.0 0.0 0.00 0.00 0.00 96 1013.5
20260903012356 77 66 0.0 0.0 0.00 0.00 0.00 96 1013.2
20260903011855 78 66 0.0 0.0 0.00 0.00 0.00 96 1013.1
20260903011350 78 66 0.0 0.0 0.00 0.00 0.00 96 1013.2
20260903010846 78 66 0.0 0.0 0.00 0.00 0.00 95 1013.2
20260903010341 78 66 0.0 0.0 0.00 0.00 0.00 95 1013.0
20260903005839 78 66 0.0 0.0 0.00 0.00 0.00 95 1012.9
20260903005334 78 66 0.0 0.0 0.00 0.00 0.00 95 1013.0
20260903004831 78 66 0.0 0.0 0.00 0.00 0.00 95 1012.9
20260903004326 78 71 0.0 0.0 0.00 0.00 0.00 94 1012.8
20260903003821 79 69 0.0 0.0 0.00 0.00 0.00 94 1013.0
20260903003316 79 66 0.0 0.0 0.00 0.00 0.00 94 1012.5
20260903002816 79 67 0.0 0.0 0.00 0.00 0.00 94 1012.6
20260903002315 79 74 0.9 0.9 0.00 0.00 0.00 93 1012.6
20260903001810 80 77 0.9 0.9 0.00 0.00 0.00 93 1012.6
20260903001306 80 77 0.9 0.9 0.00 0.00 0.00 92 1012.6
20260903000806 80 80 0.0 0.0 0.00 0.00 0.00 91 1012.5
20260903000303 80 80 0.0 0.0 0.00 0.00 0.00 90 1012.6
20260902235758 81 81 0.0 0.0 0.00 0.00 0.00 89 1012.6
20260902235254 81 80 0.0 0.0 0.00 0.00 0.00 89 1012.7
20260902234754 82 81 0.0 0.0 0.00 0.00 0.00 88 1012.5
20260902234248 82 80 0.0 0.0 0.00 0.00 0.00 86 1012.6
20260902233747 82 80 0.0 0.0 0.00 0.00 0.00 84 1012.7
20260902233242 83 80 0.0 0.0 0.00 0.00 0.00 83 1012.6
20260902232740 83 80 0.0 0.0 0.00 0.00 0.00 82 1012.8
20260902232235 83 80 0.0 0.0 0.00 0.00 0.00 81 1012.7
20260902231734 84 80 0.0 0.0 0.00 0.00 0.00 80 1012.7
20260902231230 84 80 0.0 0.0 0.00 0.00 0.00 79 1013.0
20260902230724 85 80 0.0 0.0 0.00 0.00 0.00 78 1012.5
20260902230223 85 80 0.0 0.0 0.00 0.00 0.00 76 1012.8
20260902225718 86 80 0.0 0.0 0.00 0.00 0.00 76 1012.9
20260902225219 86 80 0.0 0.0 0.00 0.00 0.00 74 1012.6
20260902224717 87 80 0.0 0.0 0.00 0.00 0.00 73 1012.9
20260902224212 88 80 0.0 0.0 0.00 0.00 0.00 72 1012.7
20260902223708 89 80 0.0 0.0 0.00 0.00 0.00 70 1012.9
20260902223208 89 80 0.0 0.0 0.00 0.00 0.00 70 1013.0
20260902222707 90 80 0.0 0.0 0.00 0.00 0.00 68 1012.7
20260902222201 91 75 0.0 0.0 0.00 0.00 0.00 66 1012.8
20260902221655 91 70 0.0 0.0 0.00 0.00 0.00 64 1012.8
20260902221154 92 69 0.9 0.9 0.00 0.00 0.00 63 1012.9
20260902220651 92 76 4.3 7.0 0.00 0.00 0.00 60 1012.9
20260902220145 93 88 1.7 2.6 0.00 0.00 0.00 62 1012.7
20260902215641 93 71 3.5 4.3 0.00 0.00 0.00 59 1012.8
20260902215136 93 62 4.3 5.2 0.00 0.00 0.00 59 1012.8
20260902214631 93 72 0.9 0.9 0.00 0.00 0.00 60 1012.8
20260902214130 94 88 3.5 4.3 0.00 0.00 0.00 58 1012.8
20260902213626 93 64 0.9 0.9 0.00 0.00 0.00 60 1012.7
20260902213125 94 75 0.9 0.9 0.00 0.00 0.00 62 1012.9
20260902212620 94 81 0.9 0.9 0.00 0.00 0.00 61 1012.9
20260902212117 94 75 2.6 2.6 0.00 0.00 0.00 59 1012.8
20260902211613 94 95 1.7 2.6 0.00 0.00 0.00 58 1012.9
20260902211108 95 75 2.6 2.6 0.00 0.00 0.00 59 1013.0
20260902210607 96 80 1.7 1.7 0.00 0.00 0.00 58 1013.1
20260902205601 96 74 0.0 0.0 0.00 0.00 0.00 59 1012.9
20260902205057 95 78 0.0 0.9 0.00 0.00 0.00 57 1013.1
20260902204556 96 78 0.0 0.0 0.00 0.00 0.00 57 1013.0
20260902204052 96 83 0.0 0.0 0.00 0.00 0.00 57 1013.3
20260902203547 95 66 0.0 0.0 0.00 0.00 0.00 57 1013.5
20260902203046 95 85 0.0 0.0 0.00 0.00 0.00 59 1013.4
20260902202542 95 79 3.5 4.3 0.00 0.00 0.00 56 1013.4
20260902202038 95 70 0.0 0.9 0.00 0.00 0.00 57 1013.3
20260902201534 95 54 2.6 4.3 0.00 0.00 0.00 57 1013.3
20260902201033 96 88 1.7 1.7 0.00 0.00 0.00 54 1013.4
20260902200528 96 77 0.0 0.0 0.00 0.00 0.00 57 1013.8
20260902200024 95 75 0.0 0.0 0.00 0.00 0.00 59 1013.7
20260902195520 93 32 1.7 1.7 0.00 0.00 0.00 57 1013.7
20260902195019 93 89 1.7 2.6 0.00 0.00 0.00 59 1013.7
20260902194519 95 48 0.9 0.9 0.00 0.00 0.00 57 1013.8
20260902194014 94 34 0.0 0.9 0.00 0.00 0.00 56 1014.0
20260902193510 95 62 4.3 6.1 0.00 0.00 0.00 56 1013.8
20260902193009 95 84 2.6 4.3 0.00 0.00 0.00 54 1013.9
20260902192508 95 85 0.9 1.7 0.00 0.00 0.00 56 1013.9
20260902192007 94 0 2.6 2.6 0.00 0.00 0.00 58 1013.8
20260902191502 94 92 4.3 5.2 0.00 0.00 0.00 57 1013.9
20260902190957 94 142 2.6 5.2 0.00 0.00 0.00 61 1013.8
20260902190452 94 91 3.5 5.2 0.00 0.00 0.00 60 1014.1
20260902185948 95 66 0.9 0.9 0.00 0.00 0.00 56 1014.0
20260902185444 94 81 2.6 4.3 0.00 0.00 0.00 56 1014.1
20260902184939 94 103 1.7 2.6 0.00 0.00 0.00 59 1014.0
20260902184434 95 69 0.9 1.7 0.00 0.00 0.00 58 1014.2
20260902183929 95 69 0.9 0.9 0.00 0.00 0.00 57 1014.2
20260902183426 94 126 4.3 4.3 0.00 0.00 0.00 56 1014.3
20260902182921 94 88 2.6 2.6 0.00 0.00 0.00 63 1014.5
20260902182417 94 141 3.5 4.3 0.00 0.00 0.00 61 1014.5
20260902181914 94 79 0.0 0.0 0.00 0.00 0.00 60 1014.3
20260902181409 93 39 0.9 0.9 0.00 0.00 0.00 60 1014.3
20260902180903 93 82 0.0 0.0 0.00 0.00 0.00 61 1014.4